Simultaneous Nadir Overpasses (SNOs) Predictions

Prediction of SNOs between GOES-16 and METOP-B Satellite Orbit:

Table of predicted SNOs for the next 14.0 days since TLE Epoch: 6/16/2022
Index Date Time (GOES-16) GOES-16 Lat,Lon METOP-B Lat,Lon Distance(km) Time Diff (sec)
1 06/16/2022 14:16:50 0.04, -75.21 -0.78, -71.47 425.83 80
2 06/18/2022 02:33:11 -0.03, -75.19 -0.22, -76.07 100.16 80
3 06/19/2022 02:15:12 -0.03, -75.20 0.88, -71.08 469.42 80
4 06/20/2022 14:31:24 0.03, -75.23 0.10, -75.65 46.91 80
5 06/23/2022 02:29:45 -0.03, -75.24 -0.05, -75.24 2.51 80
6 06/25/2022 14:30:38 0.02, -75.30 -0.08, -74.82 54.95 80
7 06/27/2022 02:49:38 -0.02, -75.31 -0.95, -79.41 468.24 80
8 06/28/2022 02:26:19 -0.02, -75.33 0.16, -74.42 102.67 80
9 06/29/2022 14:45:11 0.01, -75.37 0.82, -78.99 412.20 80
